Location: Escondida
(34.1015°N, 106.8964°W)
Time: 23:30:29
(UTC+00:00)

ATLAS 2AS CENTAUR R/B - Pass Details

Date: 11 December 2025
Orbit: 1049 x 1162 km, 63.7° (Epoch: 19 January)

Event Time Altitude Azimuth Distance (km) Brightness Sun altitude
Rises 12:46:16 0° 207° (SSW) 3,962 5.6 -15.6°
Reaches altitude 10° 12:48:58 10° 207° (SSW) 2,991 5.0 -15.0°
Maximum altitude 12:56:05 87° 120° (ESE) 1,107 2.8 -13.6°
Drops below altitude 10° 13:03:03 10° 31° (NNE) 2,922 5.1 -12.3°
Sets 13:05:40 0° 31° (NNE) 3,866 5.8 -11.8°
